Time,TemperatureF,DewpointF,PressureIn,WindDirection,WindDirectionDegrees,WindSpeedMPH,WindSpeedGustMPH,Humidity,HourlyPrecipIn,Conditions,Clouds,dailyrainin,SoftwareType,DateUTC
2013-04-19 00:03:00,56.0,48.0,29.89,SSW,204,10.0,33.0,74,0.00,,,0.00,,2013-04-19 04:03:00,
2013-04-19 00:13:00,56.0,48.0,29.88,WSW,238,6.0,25.0,74,0.00,,,0.00,,2013-04-19 04:13:00,
2013-04-19 00:23:00,56.0,48.0,29.88,WSW,238,6.0,25.0,74,0.00,,,0.00,,2013-04-19 04:23:00,
2013-04-19 00:33:00,56.0,48.0,29.88,SSW,199,9.0,28.0,74,0.00,,,0.00,,2013-04-19 04:33:00,
2013-04-19 00:43:00,56.0,48.0,29.88,SW,220,9.0,24.0,75,0.00,,,0.00,,2013-04-19 04:43:00,
2013-04-19 00:52:00,56.0,48.0,29.88,SW,220,9.0,24.0,75,0.00,,,0.00,,2013-04-19 04:52:00,
2013-04-19 01:03:00,56.0,48.0,29.87,SW,216,9.0,17.0,75,0.00,,,0.00,,2013-04-19 05:03:00,
2013-04-19 01:12:00,56.0,48.0,29.87,SW,216,9.0,17.0,75,0.00,,,0.00,,2013-04-19 05:12:00,
2013-04-19 01:22:00,57.0,49.0,29.86,SW,215,11.0,19.0,75,0.00,,,0.00,,2013-04-19 05:22:00,
2013-04-19 01:32:00,57.0,49.0,29.86,SW,219,11.0,26.0,75,0.00,,,0.00,,2013-04-19 05:32:00,
2013-04-19 01:42:00,57.0,49.0,29.86,SW,219,11.0,26.0,75,0.00,,,0.00,,2013-04-19 05:42:00,
2013-04-19 01:52:00,57.0,49.0,29.86,SSW,211,10.0,21.0,75,0.00,,,0.00,,2013-04-19 05:52:00,
2013-04-19 02:02:00,57.0,49.0,29.85,SW,221,9.0,21.0,75,0.00,,,0.00,,2013-04-19 06:02:00,
2013-04-19 02:12:00,57.0,49.0,29.85,SSW,213,7.0,18.0,75,0.00,,,0.00,,2013-04-19 06:12:00,
2013-04-19 02:22:00,57.0,49.0,29.85,SSW,213,7.0,18.0,75,0.00,,,0.00,,2013-04-19 06:22:00,
2013-04-19 02:32:00,57.0,49.0,29.84,SSW,202,7.0,23.0,75,0.00,,,0.00,,2013-04-19 06:32:00,
2013-04-19 02:42:00,57.0,49.0,29.84,SSW,202,7.0,23.0,75,0.00,,,0.00,,2013-04-19 06:42:00,
2013-04-19 02:53:00,57.0,49.0,29.85,SSW,193,10.0,24.0,75,0.00,,,0.00,,2013-04-19 06:53:00,
2013-04-19 03:02:00,57.0,49.0,29.83,SSW,212,8.0,24.0,75,0.00,,,0.00,,2013-04-19 07:02:00,
2013-04-19 03:12:00,57.0,49.0,29.83,South,170,7.0,18.0,75,0.00,,,0.00,,2013-04-19 07:12:00,
2013-04-19 03:21:00,57.0,49.0,29.83,South,170,7.0,18.0,75,0.00,,,0.00,,2013-04-19 07:21:00,
2013-04-19 03:32:00,57.0,49.0,29.81,SW,220,8.0,18.0,75,0.00,,,0.00,,2013-04-19 07:32:00,
2013-04-19 03:42:00,57.0,49.0,29.81,SW,220,8.0,18.0,75,0.00,,,0.00,,2013-04-19 07:42:00,
2013-04-19 03:52:00,57.0,49.0,29.81,SW,215,7.0,24.0,74,0.00,,,0.00,,2013-04-19 07:52:00,
2013-04-19 04:02:00,57.0,49.0,29.80,SSW,207,7.0,18.0,75,0.00,,,0.00,,2013-04-19 08:02:00,
2013-04-19 04:12:00,57.0,49.0,29.80,SSW,205,7.0,20.0,74,0.00,,,0.00,,2013-04-19 08:12:00,
2013-04-19 04:22:00,57.0,49.0,29.80,SSW,205,7.0,20.0,74,0.00,,,0.00,,2013-04-19 08:22:00,
2013-04-19 04:33:00,58.0,50.0,29.80,SSW,212,9.0,22.0,74,0.00,,,0.00,,2013-04-19 08:33:00,
2013-04-19 04:42:00,58.0,50.0,29.80,SSW,213,10.0,15.0,74,0.00,,,0.00,,2013-04-19 08:42:00,
2013-04-19 04:52:00,58.0,50.0,29.80,SSW,213,10.0,15.0,74,0.00,,,0.00,,2013-04-19 08:52:00,
2013-04-19 05:01:00,58.0,50.0,29.80,SW,216,7.0,20.0,74,0.00,,,0.00,,2013-04-19 09:01:00,
2013-04-19 05:12:00,58.0,50.0,29.79,South,188,9.0,18.0,74,0.00,,,0.00,,2013-04-19 09:12:00,
2013-04-19 05:21:00,58.0,50.0,29.79,South,188,9.0,18.0,74,0.00,,,0.00,,2013-04-19 09:21:00,
2013-04-19 05:32:00,58.0,50.0,29.79,SW,216,9.0,20.0,74,0.00,,,0.00,,2013-04-19 09:32:00,
2013-04-19 05:43:00,58.0,50.0,29.79,SW,216,9.0,20.0,74,0.00,,,0.00,,2013-04-19 09:43:00,
2013-04-19 05:52:00,58.0,50.0,29.80,SSW,208,8.0,20.0,75,0.00,,,0.00,,2013-04-19 09:52:00,
2013-04-19 06:02:00,58.0,50.0,29.80,SSW,211,8.0,22.0,75,0.00,,,0.00,,2013-04-19 10:02:00,
2013-04-19 06:13:00,58.0,50.0,29.79,South,171,5.0,17.0,75,0.00,,,0.00,,2013-04-19 10:13:00,
2013-04-19 06:23:00,58.0,50.0,29.79,South,171,5.0,17.0,75,0.00,,,0.00,,2013-04-19 10:23:00,
2013-04-19 06:33:00,59.0,51.0,29.79,SSW,206,7.0,25.0,74,0.00,,,0.00,,2013-04-19 10:33:00,
2013-04-19 06:42:00,59.0,51.0,29.80,SSW,194,9.0,18.0,74,0.00,,,0.00,,2013-04-19 10:42:00,
2013-04-19 06:52:00,59.0,51.0,29.80,SSW,194,9.0,18.0,74,0.00,,,0.00,,2013-04-19 10:52:00,
2013-04-19 07:03:00,59.0,51.0,29.80,South,187,5.0,15.0,74,0.00,,,0.00,,2013-04-19 11:03:00,
2013-04-19 07:11:00,60.0,51.0,29.80,SSW,205,6.0,15.0,73,0.00,,,0.00,,2013-04-19 11:11:00,
2013-04-19 07:22:00,60.0,51.0,29.80,SSW,205,6.0,15.0,73,0.00,,,0.00,,2013-04-19 11:22:00,
2013-04-19 07:32:00,60.0,51.0,29.79,SW,216,5.0,18.0,72,0.00,,,0.00,,2013-04-19 11:32:00,
2013-04-19 07:42:00,60.0,51.0,29.79,SW,216,5.0,18.0,72,0.00,,,0.00,,2013-04-19 11:42:00,
2013-04-19 07:52:00,61.0,52.0,29.78,SSW,203,7.0,16.0,71,0.00,,,0.00,,2013-04-19 11:52:00,
2013-04-19 08:03:00,61.0,51.0,29.77,SW,219,8.0,15.0,70,0.00,,,0.00,,2013-04-19 12:03:00,
2013-04-19 08:12:00,62.0,52.0,29.76,SSW,205,5.0,16.0,69,0.00,,,0.00,,2013-04-19 12:12:00,
2013-04-19 08:22:00,62.0,52.0,29.76,SSW,205,5.0,16.0,69,0.00,,,0.00,,2013-04-19 12:22:00,
2013-04-19 08:32:00,63.0,52.0,29.76,SSW,194,9.0,18.0,67,0.00,,,0.00,,2013-04-19 12:32:00,
2013-04-19 08:42:00,63.0,52.0,29.76,SSW,194,9.0,18.0,67,0.00,,,0.00,,2013-04-19 12:42:00,
2013-04-19 08:53:00,64.0,52.0,29.76,SSW,206,7.0,24.0,66,0.00,,,0.00,,2013-04-19 12:53:00,
2013-04-19 09:01:00,64.0,52.0,29.75,South,180,9.0,27.0,66,0.00,,,0.00,,2013-04-19 13:01:00,
2013-04-19 09:11:00,63.0,51.0,29.74,SW,218,7.0,18.0,66,0.00,,,0.00,,2013-04-19 13:11:00,
2013-04-19 09:21:00,63.0,51.0,29.74,SW,218,7.0,18.0,66,0.00,,,0.00,,2013-04-19 13:21:00,
2013-04-19 09:32:00,63.0,51.0,29.74,SW,226,9.0,19.0,66,0.00,,,0.00,,2013-04-19 13:32:00,
2013-04-19 09:42:00,64.0,52.0,29.72,SW,217,10.0,24.0,66,0.00,,,0.00,,2013-04-19 13:42:00,
2013-04-19 09:52:00,64.0,52.0,29.72,SW,217,10.0,24.0,66,0.00,,,0.00,,2013-04-19 13:52:00,
2013-04-19 10:02:00,64.0,52.0,29.72,SSW,202,9.0,21.0,65,0.00,,,0.00,,2013-04-19 14:02:00,
2013-04-19 10:11:00,64.0,52.0,29.72,SSW,208,8.0,22.0,65,0.00,,,0.00,,2013-04-19 14:11:00,
2013-04-19 10:22:00,64.0,52.0,29.72,SSW,208,8.0,22.0,65,0.00,,,0.00,,2013-04-19 14:22:00,
2013-04-19 10:32:00,64.0,52.0,29.71,SSW,212,7.0,20.0,64,0.00,,,0.00,,2013-04-19 14:32:00,
2013-04-19 10:42:00,64.0,52.0,29.71,SSW,212,7.0,20.0,64,0.00,,,0.00,,2013-04-19 14:42:00,
2013-04-19 10:52:00,65.0,52.0,29.70,SSW,193,6.0,21.0,63,0.00,,,0.00,,2013-04-19 14:52:00,
2013-04-19 11:02:00,65.0,52.0,29.69,SSW,197,7.0,21.0,63,0.00,,,0.00,,2013-04-19 15:02:00,
2013-04-19 11:12:00,65.0,52.0,29.68,SW,214,8.0,26.0,62,0.00,,,0.00,,2013-04-19 15:12:00,
2013-04-19 11:22:00,65.0,52.0,29.68,SW,214,8.0,26.0,62,0.00,,,0.00,,2013-04-19 15:22:00,
2013-04-19 11:33:00,65.0,51.0,29.68,SW,218,8.0,21.0,61,0.00,,,0.00,,2013-04-19 15:33:00,
2013-04-19 11:43:00,65.0,51.0,29.68,SW,218,8.0,21.0,61,0.00,,,0.00,,2013-04-19 15:43:00,
2013-04-19 11:52:00,66.0,52.0,29.68,SSW,199,8.0,28.0,61,0.00,,,0.00,,2013-04-19 15:52:00,
2013-04-19 12:03:00,65.0,51.0,29.67,SSW,192,9.0,16.0,61,0.00,,,0.00,,2013-04-19 16:03:00,
2013-04-19 12:13:00,65.0,51.0,29.67,SW,228,9.0,22.0,61,0.00,,,0.00,,2013-04-19 16:13:00,
2013-04-19 12:23:00,65.0,51.0,29.67,SW,228,9.0,22.0,61,0.00,,,0.00,,2013-04-19 16:23:00,
2013-04-19 12:32:00,66.0,52.0,29.66,SW,220,8.0,21.0,61,0.00,,,0.00,,2013-04-19 16:32:00,
2013-04-19 12:42:00,66.0,52.0,29.65,South,182,11.0,22.0,60,0.00,,,0.00,,2013-04-19 16:42:00,
2013-04-19 12:53:00,66.0,52.0,29.65,South,182,11.0,22.0,60,0.00,,,0.00,,2013-04-19 16:53:00,
2013-04-19 13:02:00,66.0,52.0,29.66,SSW,206,11.0,24.0,60,0.00,,,0.00,,2013-04-19 17:02:00,
2013-04-19 13:12:00,66.0,52.0,29.66,SSW,206,11.0,24.0,60,0.00,,,0.00,,2013-04-19 17:12:00,
2013-04-19 13:21:00,66.0,52.0,29.64,SSW,212,9.0,28.0,60,0.00,,,0.00,,2013-04-19 17:21:00,
2013-04-19 13:33:00,68.0,53.0,29.64,SW,218,7.0,18.0,58,0.00,,,0.00,,2013-04-19 17:33:00,
2013-04-19 13:42:00,68.0,53.0,29.64,SW,218,7.0,18.0,58,0.00,,,0.00,,2013-04-19 17:42:00,
2013-04-19 13:52:00,68.0,52.0,29.64,SW,223,8.0,22.0,57,0.00,,,0.00,,2013-04-19 17:52:00,
2013-04-19 14:02:00,68.0,52.0,29.62,South,182,10.0,26.0,57,0.00,,,0.00,,2013-04-19 18:02:00,
2013-04-19 14:13:00,68.0,52.0,29.62,South,182,10.0,26.0,57,0.00,,,0.00,,2013-04-19 18:13:00,
2013-04-19 14:23:00,68.0,52.0,29.62,SSW,201,8.0,23.0,57,0.00,,,0.00,,2013-04-19 18:23:00,
2013-04-19 14:33:00,70.0,54.0,29.61,South,184,9.0,22.0,56,0.00,,,0.00,,2013-04-19 18:33:00,
2013-04-19 14:43:00,70.0,54.0,29.61,South,184,9.0,22.0,56,0.00,,,0.00,,2013-04-19 18:43:00,
2013-04-19 14:52:00,70.0,53.0,29.59,SW,225,10.0,23.0,54,0.00,,,0.00,,2013-04-19 18:52:00,
2013-04-19 15:02:00,71.0,54.0,29.56,SSW,203,6.0,28.0,56,0.00,,,0.00,,2013-04-19 19:02:00,
2013-04-19 15:11:00,71.0,54.0,29.55,SW,227,9.0,24.0,54,0.00,,,0.00,,2013-04-19 19:11:00,
2013-04-19 15:21:00,71.0,54.0,29.55,SW,227,9.0,24.0,54,0.00,,,0.00,,2013-04-19 19:21:00,
2013-04-19 15:32:00,70.0,53.0,29.53,SSW,202,7.0,21.0,55,0.00,,,0.00,,2013-04-19 19:32:00,
2013-04-19 15:42:00,70.0,53.0,29.53,SSW,202,7.0,21.0,55,0.00,,,0.00,,2013-04-19 19:42:00,
2013-04-19 15:52:00,71.0,54.0,29.53,SSW,204,8.0,22.0,54,0.00,,,0.00,,2013-04-19 19:52:00,
2013-04-19 16:02:00,72.0,54.0,29.51,SW,229,13.0,30.0,53,0.00,,,0.00,,2013-04-19 20:02:00,
2013-04-19 16:11:00,72.0,54.0,29.52,SW,221,9.0,24.0,54,0.00,,,0.00,,2013-04-19 20:11:00,
2013-04-19 16:22:00,72.0,54.0,29.52,SW,221,9.0,24.0,54,0.00,,,0.00,,2013-04-19 20:22:00,
2013-04-19 16:32:00,71.0,54.0,29.52,SSW,212,6.0,29.0,55,0.00,,,0.00,,2013-04-19 20:32:00,
2013-04-19 16:42:00,71.0,54.0,29.52,SW,219,6.0,18.0,55,0.00,,,0.00,,2013-04-19 20:42:00,
2013-04-19 16:52:00,71.0,54.0,29.52,SW,219,6.0,18.0,55,0.00,,,0.00,,2013-04-19 20:52:00,
2013-04-19 17:01:00,72.0,55.0,29.52,SW,224,9.0,23.0,55,0.00,,,0.00,,2013-04-19 21:01:00,
2013-04-19 17:11:00,72.0,55.0,29.52,SW,227,7.0,19.0,55,0.00,,,0.00,,2013-04-19 21:11:00,
2013-04-19 17:21:00,72.0,55.0,29.52,SW,227,7.0,19.0,55,0.00,,,0.00,,2013-04-19 21:21:00,
2013-04-19 17:32:00,71.0,54.0,29.53,SW,229,6.0,16.0,55,0.00,,,0.00,,2013-04-19 21:32:00,
2013-04-19 17:42:00,71.0,54.0,29.53,SW,229,6.0,16.0,55,0.00,,,0.00,,2013-04-19 21:42:00,
2013-04-19 17:53:00,71.0,54.0,29.55,WSW,242,7.0,15.0,56,0.00,,,0.00,,2013-04-19 21:53:00,
2013-04-19 18:02:00,63.0,46.0,29.60,North,351,6.0,11.0,54,0.02,,,0.02,,2013-04-19 22:02:00,
2013-04-19 18:12:00,51.0,39.0,29.59,North,2,2.0,16.0,63,0.12,,,0.12,,2013-04-19 22:12:00,
2013-04-19 18:23:00,51.0,39.0,29.59,North,2,2.0,16.0,63,0.12,,,0.12,,2013-04-19 22:23:00,
2013-04-19 18:33:00,47.0,38.0,29.61,WNW,286,2.0,8.0,71,0.22,,,0.22,,2013-04-19 22:33:00,
2013-04-19 18:42:00,46.0,38.0,29.63,NNW,345,2.0,11.0,74,0.30,,,0.30,,2013-04-19 22:42:00,
2013-04-19 18:52:00,46.0,38.0,29.63,NNW,345,2.0,11.0,74,0.30,,,0.30,,2013-04-19 22:52:00,
2013-04-19 19:03:00,45.0,38.0,29.63,WNW,287,2.0,7.0,75,0.34,,,0.34,,2013-04-19 23:03:00,
2013-04-19 19:11:00,45.0,38.0,29.63,WNW,287,2.0,7.0,75,0.34,,,0.34,,2013-04-19 23:11:00,
2013-04-19 19:22:00,44.0,37.0,29.65,NW,318,3.0,7.0,77,0.29,,,0.39,,2013-04-19 23:22:00,
2013-04-19 19:32:00,44.0,38.0,29.65,NNW,337,2.0,8.0,78,0.25,,,0.45,,2013-04-19 23:32:00,
2013-04-19 19:42:00,44.0,38.0,29.65,NNW,337,2.0,8.0,78,0.25,,,0.45,,2013-04-19 23:42:00,
2013-04-19 19:52:00,43.0,37.0,29.68,NNW,331,5.0,9.0,78,0.21,,,0.51,,2013-04-19 23:52:00,
2013-04-19 20:02:00,42.0,36.0,29.69,NNW,328,3.0,13.0,78,0.14,,,0.51,,2013-04-20 00:02:00,
2013-04-19 20:12:00,41.0,35.0,29.70,North,349,3.0,6.0,79,0.12,,,0.53,,2013-04-20 00:12:00,
2013-04-19 20:22:00,41.0,35.0,29.70,North,349,3.0,6.0,79,0.12,,,0.53,,2013-04-20 00:22:00,
2013-04-19 20:32:00,41.0,35.0,29.72,NW,326,4.0,7.0,79,0.08,,,0.55,,2013-04-20 00:32:00,
2013-04-19 20:42:00,41.0,35.0,29.72,NW,326,4.0,7.0,79,0.08,,,0.55,,2013-04-20 00:42:00,
2013-04-19 20:52:00,40.0,34.0,29.73,North,354,4.0,9.0,79,0.04,,,0.55,,2013-04-20 00:52:00,
2013-04-19 21:01:00,39.0,33.0,29.74,NNW,337,3.0,10.0,79,0.04,,,0.55,,2013-04-20 01:01:00,
2013-04-19 21:11:00,39.0,33.0,29.74,NNW,337,3.0,10.0,79,0.04,,,0.55,,2013-04-20 01:11:00,
2013-04-19 21:21:00,39.0,33.0,29.75,NNW,330,3.0,6.0,79,0.00,,,0.55,,2013-04-20 01:21:00,
2013-04-19 21:32:00,39.0,33.0,29.75,NNW,331,3.0,6.0,78,0.00,,,0.55,,2013-04-20 01:32:00,
2013-04-19 21:42:00,39.0,33.0,29.75,NNW,331,3.0,6.0,78,0.00,,,0.55,,2013-04-20 01:42:00,
2013-04-19 21:52:00,39.0,32.0,29.77,NW,309,2.0,4.0,77,0.00,,,0.55,,2013-04-20 01:52:00,
2013-04-19 22:01:00,39.0,32.0,29.77,NW,325,2.0,7.0,77,0.00,,,0.55,,2013-04-20 02:01:00,
2013-04-19 22:11:00,39.0,32.0,29.78,NW,309,2.0,5.0,76,0.00,,,0.55,,2013-04-20 02:11:00,
2013-04-19 22:21:00,39.0,32.0,29.78,NW,309,2.0,5.0,76,0.00,,,0.55,,2013-04-20 02:21:00,
2013-04-19 22:32:00,39.0,32.0,29.78,West,270,1.0,6.0,76,0.00,,,0.55,,2013-04-20 02:32:00,
2013-04-19 22:42:00,39.0,32.0,29.78,West,270,1.0,6.0,76,0.00,,,0.55,,2013-04-20 02:42:00,
2013-04-19 22:52:00,39.0,32.0,29.80,NNW,337,1.0,4.0,76,0.00,,,0.55,,2013-04-20 02:52:00,
2013-04-19 23:01:00,39.0,32.0,29.81,West,278,3.0,5.0,75,0.00,,,0.55,,2013-04-20 03:01:00,
2013-04-19 23:11:00,39.0,31.0,29.81,West,277,2.0,6.0,74,0.00,,,0.55,,2013-04-20 03:11:00,
2013-04-19 23:21:00,39.0,31.0,29.81,West,277,2.0,6.0,74,0.00,,,0.55,,2013-04-20 03:21:00,
2013-04-19 23:33:00,39.0,31.0,29.80,NNW,344,2.0,4.0,74,0.00,,,0.55,,2013-04-20 03:33:00,
2013-04-19 23:43:00,39.0,31.0,29.80,NNW,337,2.0,5.0,74,0.00,,,0.55,,2013-04-20 03:43:00,
2013-04-19 23:53:00,39.0,31.0,29.80,NNW,337,2.0,5.0,74,0.00,,,0.55,,2013-04-20 03:53:00,